Content
SEND FEEDBACK

Daily
Averages
Monthly
Summary
United States of America

POTTS JUNCTION, GUAM


Home > North America > United States > Guam
Elevation: 360 feet     Latitude: 13 33N     Longitude: 144 50E

WEATHER
 
SELECT A DAY
Number of Records: 215,513;   Date Range: 1/1/95 - 12/17/14
 
SHARE

PRINT THIS DATA

[ ← Previous Day ]
WEATHER ALMANAC - FEBRUARY 16, 2014
[ Next Day → ]
[ °C ]   °F
Weather ElementAverageHighLow
Temperature79.5 °F86 °F (11:54 am)73 °F (5:54 am)
Dewpoint70.5 °F72 °F (9:54 am)69.1 °F (3:54 am)
Humidity74.6 %87 % (5:54 am)59 % (3:54 pm)
Barometer29.89 in29.94 in (9:54 pm)29.83 in (3:54 pm)
Wind Speed9 mph15 mph (12:54 pm)
Weather ElementAverage
Visibility10 mi
Wind DirectionSE (134.8 °)

Weather ElementTotal
Precipitation---
Cooling Degree Days14.5 (Base 65)
Growing Degree Days29.5 (Base 50)
Averaged from 25 records on February 16, 2014
WEATHER CONDITIONS BREAKOUT
WIND DIRECTION BREAKOUT
WEATHER BY HOUR - FEBRUARY 16, 2014
[ °C ]   °F
Local TimeTemperatureDewpointHumidityBarometerVisibilityWind DirectionWind SpeedGust SpeedPrecipitationEventsConditions
1:17 AM75.2 °F69.8 °F83 %29.91 in10.0 miNorth (350°)3.5 mphMostly Cloudy
1:38 AM75.2 °F69.8 °F83 %29.91 in10.0 miNE (40°)4.6 mphScattered Clouds
1:54 AM75.0 °F70.0 °F84 %29.89 in10.0 miNE (50°)5.8 mphClear
2:54 AM75.9 °F70.0 °F82 %29.87 in10.0 miNE (50°)5.8 mphClear
3:54 AM73.9 °F69.1 °F85 %29.87 in10.0 miNNE (30°)4.6 mphPartly Cloudy
4:54 AM73.9 °F69.1 °F85 %29.87 in10.0 miENE (60°)5.8 mphClear
5:54 AM73.0 °F69.1 °F87 %29.88 in10.0 miNE (50°)4.6 mphClear
6:54 AM73.0 °F69.1 °F87 %29.89 in10.0 miNE (40°)5.8 mphClear
7:54 AM79.0 °F71.1 °F77 %29.91 in10.0 miNE (40°)5.8 mphClear
8:54 AM82.0 °F71.1 °F69 %29.93 in10.0 miNNE (20°)8.1 mphPartly Cloudy
9:54 AM84.0 °F72.0 °F67 %29.93 in10.0 miNorth (350°)8.1 mphScattered Clouds
10:54 AM84.9 °F71.1 °F63 %29.92 in10.0 miNorth (360°)12.7 mphScattered Clouds
11:54 AM86.0 °F71.1 °F61 %29.90 in10.0 miNorth (350°)13.8 mphPartly Cloudy
12:54 PM86.0 °F71.1 °F61 %29.87 in10.0 miNorth (350°)15.0 mphPartly Cloudy
1:54 PM86.0 °F71.1 °F61 %29.86 in10.0 miNorth (350°)13.8 mphPartly Cloudy
2:54 PM86.0 °F71.1 °F61 %29.84 in10.0 miNNW (340°)15.0 mphPartly Cloudy
3:54 PM86.0 °F70.0 °F59 %29.83 in10.0 miNorth (350°)15.0 mphPartly Cloudy
4:54 PM84.9 °F69.1 °F59 %29.84 in10.0 miNNE (20°)13.8 mphScattered Clouds
5:54 PM81.0 °F71.1 °F72 %29.86 in10.0 miNorth (10°)13.8 mphScattered Clouds
6:54 PM79.0 °F71.1 °F77 %29.88 in10.0 miNorth (10°)12.7 mphPartly Cloudy
7:54 PM79.0 °F71.1 °F77 %29.90 in10.0 miNNE (20°)11.5 mphPartly Cloudy
8:54 PM78.1 °F70.0 °F76 %29.93 in10.0 miNE (40°)5.8 mphPartly Cloudy
9:54 PM77.0 °F71.1 °F82 %29.94 in10.0 miNNE (20°)6.9 mphPartly Cloudy
10:54 PM77.0 °F71.1 °F82 %29.94 in10.0 miNNE (20°)6.9 mphPartly Cloudy
11:54 PM77.0 °F72.0 °F84 %29.94 in10.0 miNE (50°)5.8 mphClear
Hourly data recorded from PGUM, located miles away from Potts Junction, Guam







STORIES FROM OUR PARTNERS